Location: Caltech
(34.1382°N, 118.1253°W)
Time: 18:26:22
(UTC-07:00)

Iridium 68 - Visible Passes

Search period start: 28 March 2017 00:00
Search period end: 07 April 2017 00:00
Orbit: 776 x 779 km, 86.4° (Epoch: 27 March)

Date Brightness Start Highest point End Pass type
(mag) Time Alt. Az. Time Alt. Az. Time Alt. Az.
28 Mar 6.0 05:46:46 10° S 05:51:58 83° W 05:57:13 10° N visible
29 Mar 7.0 05:13:31 10° SSE 05:18:31 50° E 05:23:33 10° NNE visible
30 Mar 8.2 04:40:57 10° SE 04:45:11 26° E 04:49:26 10° NNE visible
31 Mar 9.0 04:09:33 10° ESE 04:11:58 13° E 04:14:23 10° NE visible
31 Mar 6.1 05:47:00 10° SSW 05:52:06 55° W 05:57:14 10° N visible
01 Apr 6.2 05:13:24 10° S 05:18:35 76° E 05:23:48 10° N visible
02 Apr 7.4 04:40:24 10° SSE 04:45:11 38° E 04:49:59 10° NNE visible
03 Apr 8.5 04:08:11 10° SE 04:11:54 20° E 04:15:36 10° NE visible
03 Apr 6.6 05:47:29 10° SSW 05:52:16 37° W 05:57:05 10° NNW visible
04 Apr 5.9 05:13:30 10° S 05:18:41 73° W 05:23:54 10° N visible
05 Apr 6.6 04:40:07 10° SSE 04:45:13 58° E 04:50:20 10° N visible
06 Apr 7.8 04:07:24 10° SE 04:11:51 30° E 04:16:19 10° NNE visible
06 Apr 7.1 05:48:15 10° SW 05:52:29 25° W 05:56:45 10° NNW visible
